DW9577 Weather Reports


time (UTC)temp
C
wind
direction
speed
KPH
gust
KPH
rain 1hr
cm
rain 24hr
cm
rain mn
cm
humidity
%
barometer
mb
20260904014504 12 117 30.6 45.1 0.41 1.17 1.17 55 1016.8
20260904013003 12 163 14.5 24.1 0.38 0.94 0.94 49 1016.2
20260904011525 13 235 11.3 25.7 0.48 0.89 0.89 44 1015.5
20260904010003 13 165 16.1 32.2 0.48 0.84 0.84 42 1014.9
20260904004503 15 137 37.0 48.3 0.43 0.89 0.76 53 1014.9
20260904003004 15 76 22.5 45.1 0.20 0.74 0.53 45 1014.1
20260904001524 15 51 25.7 37.0 0.08 0.66 0.41 40 1013.3
20260904000024 16 52 12.9 27.4 0.00 0.74 0.33 35 1012.6
20260903234525 16 163 6.4 20.9 0.00 0.81 0.33 33 1012.2
20260903233003 16 157 4.8 19.3 0.00 0.86 0.33 30 1011.3
20260903231504 18 87 33.8 45.1 0.00 1.04 0.33 38 1010.8
20260903230024 17 122 12.9 25.7 0.00 1.17 0.33 29 1010.0
20260903224504 18 215 14.5 29.0 0.00 1.17 0.33 28 1009.2
20260903223004 18 248 33.8 54.7 0.00 1.17 0.33 31 1008.3
20260903221504 20 260 30.6 59.5 0.00 1.17 0.33 39 1008.3
20260903220004 20 255 35.4 57.9 0.00 1.17 0.33 35 1007.3
20260903214525 20 230 43.5 59.5 0.00 1.17 0.33 37 1006.7
20260903213004 20 148 41.8 62.8 0.00 1.17 0.33 35 1005.7
20260903211504 20 166 22.5 51.5 0.00 1.17 0.33 31 1005.1
20260903210004 20 212 25.7 46.7 0.00 1.17 0.33 31 1004.3
20260903204504 20 260 29.0 45.1 0.00 1.17 0.33 30 1003.4
20260903203004 21 199 48.3 66.0 0.00 1.17 0.33 34 1002.5
20260903201524 20 202 35.4 57.9 0.00 1.17 0.33 30 1001.7
20260903200025 20 135 37.0 48.3 0.00 1.17 0.33 33 1001.1
20260903194504 20 141 24.1 43.5 0.00 1.17 0.33 26 1000.0
20260903193004 20 119 24.1 51.5 0.00 1.17 0.33 32 999.6
20260903191504 19 109 22.5 32.2 0.00 1.17 0.33 29 998.7
20260903190024 18 129 12.9 32.2 0.00 1.17 0.33 24 997.6
20260903184503 18 265 11.3 33.8 0.00 1.17 0.33 27 997.0
20260903183003 19 255 43.5 72.4 0.00 1.17 0.33 36 996.4
20260903181524 18 231 35.4 51.5 0.00 1.17 0.33 37 995.8
20260903180025 18 117 48.3 70.8 0.00 1.17 0.33 39 994.9
20260903174504 17 183 3.2 17.7 0.00 1.17 0.33 30 994.3
20260903173003 17 212 37.0 66.0 0.00 1.17 0.33 36 993.4
20260903171503 16 291 24.1 48.3 0.00 1.17 0.33 34 992.7
20260903170024 17 264 37.0 56.3 0.00 1.17 0.33 48 992.6
20260903164503 16 232 40.2 54.7 0.00 1.17 0.33 51 992.1
20260903163024 15 200 24.1 43.5 0.00 1.17 0.33 42 991.2
20260903161524 15 146 16.1 32.2 0.00 1.17 0.33 46 990.9
20260903160003 13 196 24.1 53.1 0.00 1.17 0.33 47 990.3
20260903154503 13 218 14.5 35.4 0.00 1.17 0.33 53 990.1
20260903153025 13 204 32.2 48.3 0.00 1.17 0.33 56 989.3
20260903151525 12 240 22.5 40.2 0.00 1.17 0.33 51 988.8
20260903150024 11 188 19.3 29.0 0.00 1.17 0.33 57 988.6
20260903144503 10 297 9.7 30.6 0.18 1.17 0.33 53 988.0
20260903143004 10 287 25.7 35.4 0.30 1.17 0.33 64 988.0
20260903141503 10 213 17.7 25.7 0.33 1.17 0.33 66 987.9
20260903140024 8 193 19.3 32.2 0.33 1.17 0.33 60 986.8
20260903134503 7 143 4.8 12.9 0.15 0.99 0.15 62 986.9
20260903133004 7 151 6.4 20.9 0.05 0.89 0.05 69 987.2